Weather History for KNEW - October, 2012

Change the Weather History Date:

Saturday, October 27, 2012

  Actual Average Record
Temperature  
Mean Temperature 59 °F 68 °F  
Max Temperature 64 °F 77 °F 88 °F (1995)
Min Temperature 53 °F 59 °F 37 °F (1965)
Degree Days  
Heating Degree Days 6 2  
Month to date heating degree days 6 15  
Since 1 July heating degree days 6 15  
Cooling Degree Days 0 5  
Month to date cooling degree days 197 204  
Year to date cooling degree days 3338 2893  
Growing Degree Days 7 (Base 50)    
Moisture  
Dew Point 49 °F    
Average Humidity 73    
Maximum Humidity 86    
Minimum Humidity 60    
Precipitation  
Precipitation 0.00 in 0.12 in 4.20 in (1985)
Month to date precipitation 0.40 3.06  
Year to date precipitation 60.65 52.24  
Snow  
Snow 0.00 in - - ()
Month to date snowfall 0.0  
Since 1 July snowfall 0.0  
Since 1 September snowfall 0.0  
Snow Depth 0.00 in    
Sea Level Pressure  
Sea Level Pressure 30.00 in    
Wind  
Wind Speed 14 mph (North)    
Max Wind Speed 22 mph    
Max Gust Speed 29 mph    
Visibility 10 miles    
Events      
T = Trace of Precipitation, MM = Missing Value Source: NWS Daily Summary

Daily Weather History Graph

Daily Weather History Graph

Search for Another Location

Airport or City:

Trip Planner

Search our weather history database for the weather conditions in past years. The results will help you decide how hot, cold, wet, or windy it might be!

Date:

Astronomy

Oct. 27, 2012 Rise Set
Actual Time 7:10 AM CDT 6:16 PM CDT
Civil Twilight 6:46 AM CDT 6:41 PM CDT
Nautical Twilight 6:17 AM CDT 7:09 PM CDT
Astronomical Twilight 5:50 AM CDT 7:37 PM CDT
Moon 4:58 PM CDT (10/27) 5:12 AM CDT (10/27)
Length of Visible Light 11h 55m
Length of Day
11h 06m
Waxing Gibbous, 96% of the Moon is Illuminated
Oct 27
Waxing Gibbous
Oct 29
Full
Nov 6
Last Quarter
Nov 13
New
Nov 20
First Quarter

Hourly Weather History & Observations

Time (CDT) Temp. Dew Point Humidity Pressure Visibility Wind Dir Wind Speed Gust Speed Precip Events Conditions
12:53 AM 61.0 °F 55.9 °F 83% 29.99 in 10.0 mi NNW 21.9 mph 31.1 mph N/A   Overcast
1:53 AM 60.1 °F 54.0 °F 80% 29.99 in 10.0 mi North 25.3 mph 29.9 mph N/A   Overcast
2:53 AM 59.0 °F 52.0 °F 78% 29.98 in 10.0 mi NNW 21.9 mph 27.6 mph N/A   Overcast
3:53 AM 57.0 °F 51.1 °F 81% 29.98 in 10.0 mi North 20.7 mph 29.9 mph N/A   Overcast
4:53 AM 55.9 °F 50.0 °F 80% 29.98 in 10.0 mi North 20.7 mph 25.3 mph N/A   Overcast
5:53 AM 55.0 °F 50.0 °F 83% 29.99 in 10.0 mi North 18.4 mph 25.3 mph N/A   Overcast
6:53 AM 54.0 °F 48.9 °F 83% 30.00 in 10.0 mi North 17.3 mph 25.3 mph N/A   Overcast
7:53 AM 54.0 °F 48.9 °F 83% 30.01 in 10.0 mi North 18.4 mph 25.3 mph N/A   Overcast
8:53 AM 53.6 °F 48.2 °F 82% 30.04 in 10.0 mi North 18.4 mph - N/A   Overcast
9:53 AM 55.4 °F 48.2 °F 77% 30.04 in 10.0 mi North 18.4 mph 23.0 mph N/A   Overcast
10:53 AM 55.0 °F 50.0 °F 83% 30.03 in 10.0 mi North 17.3 mph 25.3 mph N/A   Overcast
11:53 AM 55.9 °F 50.0 °F 80% 30.02 in 10.0 mi NNW 16.1 mph - N/A   Overcast
12:53 PM 55.9 °F 50.0 °F 80% 30.00 in 10.0 mi North 19.6 mph 28.8 mph N/A   Overcast
1:53 PM 57.0 °F 50.0 °F 77% 29.96 in 10.0 mi North 17.3 mph 25.3 mph N/A   Overcast
2:10 PM 57.2 °F 50.0 °F 77% 29.97 in 10.0 mi North 19.6 mph 26.5 mph N/A   Overcast
2:53 PM 57.9 °F 50.0 °F 75% 29.95 in 10.0 mi North 20.7 mph - N/A   Overcast
3:53 PM 61.0 °F 50.0 °F 67% 29.95 in 10.0 mi NNW 19.6 mph 27.6 mph N/A   Mostly Cloudy
4:53 PM 57.9 °F 48.0 °F 70% 29.96 in 10.0 mi North 19.6 mph 25.3 mph N/A   Mostly Cloudy
5:41 PM 55.4 °F 46.4 °F 72% 29.98 in 10.0 mi North 23.0 mph - N/A   Scattered Clouds
5:53 PM 55.9 °F 48.0 °F 75% 29.97 in 10.0 mi North 19.6 mph 27.6 mph N/A   Mostly Cloudy
6:53 PM 57.0 °F 48.0 °F 72% 29.98 in 10.0 mi NNE 20.7 mph 26.5 mph N/A   Overcast
7:50 PM 55.4 °F 46.4 °F 72% 30.01 in 10.0 mi North 20.7 mph - N/A   Scattered Clouds
7:53 PM 55.0 °F 46.0 °F 72% 30.00 in 10.0 mi NNE 24.2 mph - N/A   Scattered Clouds
8:53 PM 54.0 °F 46.0 °F 75% 30.01 in 10.0 mi NNE 20.7 mph 26.5 mph N/A   Clear
9:53 PM 55.0 °F 46.9 °F 74% 30.03 in 10.0 mi North 18.4 mph 24.2 mph N/A   Clear
10:53 PM 55.4 °F 44.6 °F 67% 30.06 in 10.0 mi North 25.3 mph - N/A   Clear
11:53 PM 54.0 °F 45.0 °F 72% 30.04 in 10.0 mi North 26.5 mph 35.7 mph N/A   Clear